Weather History for Morristown, NJ

Change the Weather History Date:

Friday, September 12, 2014

  Actual Average Record
Temperature  
Mean Temperature 68 °F -  
Max Temperature 77 °F 80 °F 99 °F (1983)
Min Temperature 57 °F 52 °F 36 °F (1943)
Cooling Degree Days 3    
Growing Degree Days 18 (Base 50)    
Moisture  
Dew Point 51 °F    
Average Humidity 62    
Maximum Humidity 77    
Minimum Humidity 41    
Precipitation  
Precipitation 0.00 in - - ()
Sea Level Pressure  
Sea Level Pressure 30.08 in    
Wind  
Wind Speed 5 mph (North)    
Max Wind Speed 10 mph    
Max Gust Speed 17 mph    
Visibility 12 miles    
Events      
Averages and records for this station are not official NWS values.
T = Trace of Precipitation, MM = Missing Value Source: NWS Daily Summary

Daily Weather History Graph

Daily Weather History Graph

Search for Another Location

Airport:

Trip Planner

Search our weather history database for the weather conditions in past years. The results will help you decide how hot, cold, wet, or windy it might be!

Date:

Astronomy

Sep. 12, 2014 Rise Set
Actual Time 6:35 AM EDT 7:11 PM EDT
Civil Twilight 6:07 AM EDT 7:39 PM EDT
Nautical Twilight 5:35 AM EDT 8:11 PM EDT
Astronomical Twilight 5:01 AM EDT 8:45 PM EDT
Moon 9:28 PM EDT (9/12) 10:37 AM EDT (9/12)
Length of Visible Light 13h 31m
Length of Day
12h 36m
Waning Gibbous, 83% of the Moon is Illuminated
Sep 12
Waning Gibbous
Sep 15
Last Quarter
Sep 24
New
Oct 1
First Quarter
Oct 8
Full

Hourly Weather History & Observations

Time (EDT) Temp. Dew Point Humidity Pressure Visibility Wind Dir Wind Speed Gust Speed Precip Events Conditions
12:15 AM 69.8 °F 53.6 °F 56% 29.97 in 10.0 mi NNW 9.2 mph - N/A   Clear
12:35 AM 68.0 °F 53.6 °F 60% 29.97 in 10.0 mi North 3.5 mph - N/A   Clear
12:55 AM 68.0 °F 53.6 °F 60% 29.98 in 10.0 mi North 5.8 mph - N/A   Clear
1:15 AM 68.0 °F 53.6 °F 60% 29.98 in 10.0 mi North 6.9 mph - N/A   Clear
1:35 AM 66.2 °F 53.6 °F 64% 29.99 in 10.0 mi Calm Calm - N/A   Clear
1:55 AM 66.2 °F 53.6 °F 64% 29.99 in 10.0 mi North 5.8 mph - N/A   Clear
2:15 AM 66.2 °F 53.6 °F 64% 30.00 in 10.0 mi North 3.5 mph - N/A   Clear
2:35 AM 64.4 °F 53.6 °F 68% 30.00 in 10.0 mi North 5.8 mph - N/A   Clear
2:55 AM 62.6 °F 53.6 °F 72% 30.01 in 10.0 mi Calm Calm - N/A   Clear
3:15 AM 60.8 °F 51.8 °F 72% 30.02 in 10.0 mi North 6.9 mph - N/A   Clear
3:35 AM 64.4 °F 51.8 °F 64% 30.02 in 10.0 mi NNW 4.6 mph - N/A   Clear
3:55 AM 62.6 °F 51.8 °F 68% 30.03 in 10.0 mi NNW 3.5 mph - N/A   Clear
4:15 AM 59.0 °F 51.8 °F 77% 30.04 in 10.0 mi Calm Calm - N/A   Clear
4:35 AM 60.8 °F 51.8 °F 72% 30.04 in 10.0 mi North 3.5 mph - N/A   Clear
4:55 AM 60.8 °F 50.0 °F 68% 30.04 in 10.0 mi Calm Calm - N/A   Clear
5:15 AM 59.0 °F 51.8 °F 77% 30.05 in 10.0 mi Calm Calm - N/A   Scattered Clouds
5:35 AM 60.8 °F 50.0 °F 68% 30.05 in 10.0 mi North 8.1 mph - N/A   Scattered Clouds
5:55 AM 60.8 °F 50.0 °F 68% 30.07 in 10.0 mi North 4.6 mph - N/A   Clear
6:15 AM 60.8 °F 50.0 °F 68% 30.07 in 10.0 mi North 5.8 mph - N/A   Clear
6:35 AM 60.8 °F 48.2 °F 63% 30.08 in 10.0 mi North 4.6 mph - N/A   Clear
6:45 AM 59.0 °F 50.0 °F 72% 30.08 in 20.0 mi NNE 10.4 mph 17.3 mph N/A   Partly Cloudy
7:45 AM 60.8 °F 51.8 °F 72% 30.11 in 20.0 mi North 6.9 mph - N/A   Partly Cloudy
8:55 AM 62.6 °F 51.8 °F 68% 30.12 in 20.0 mi North 9.2 mph 16.1 mph N/A   Scattered Clouds
9:45 AM 66.2 °F 51.8 °F 60% 30.13 in 20.0 mi NE 9.2 mph - N/A   Scattered Clouds
10:45 AM 68.0 °F 51.8 °F 56% 30.13 in 20.0 mi NNE 9.2 mph - N/A   Clear
11:45 AM 69.8 °F 51.8 °F 53% 30.12 in 10.0 mi North 3.5 mph - N/A   Clear
12:45 PM 73.4 °F 50.0 °F 44% 30.11 in 20.0 mi Calm Calm - N/A   Clear
1:45 PM 73.4 °F 51.8 °F 47% 30.10 in 10.0 mi North 5.8 mph - N/A   Clear
2:45 PM 75.2 °F 50.0 °F 41% 30.10 in 10.0 mi Calm Calm - N/A   Scattered Clouds
3:45 PM 77.0 °F 51.8 °F 41% 30.09 in 20.0 mi NE 9.2 mph - N/A   Scattered Clouds
4:45 PM 75.2 °F 51.8 °F 44% 30.09 in 10.0 mi North 4.6 mph - N/A   Clear
5:45 PM 75.2 °F 53.6 °F 47% 30.09 in 10.0 mi NNW 5.8 mph - N/A   Clear
6:45 PM 69.8 °F 51.8 °F 53% 30.10 in 10.0 mi North 6.9 mph - N/A   Scattered Clouds
7:45 PM 66.2 °F 51.8 °F 60% 30.13 in 10.0 mi NNE 4.6 mph - N/A   Clear
8:45 PM 64.4 °F 51.8 °F 64% 30.16 in 10.0 mi NNE 5.8 mph - N/A   Clear
9:45 PM 60.8 °F 51.8 °F 72% 30.19 in 10.0 mi East 4.6 mph - N/A   Clear
10:15 PM 62.6 °F 50.0 °F 63% 30.19 in 10.0 mi Calm Calm - N/A   Clear
10:35 PM 60.8 °F 50.0 °F 68% 30.19 in 10.0 mi Calm Calm - N/A   Clear
10:55 PM 60.8 °F 48.2 °F 63% 30.20 in 10.0 mi NNE 3.5 mph - N/A   Clear
11:15 PM 60.8 °F 48.2 °F 63% 30.20 in 10.0 mi Calm Calm - N/A   Clear
11:35 PM 59.0 °F 48.2 °F 67% 30.20 in 10.0 mi Calm Calm - N/A   Clear
11:55 PM 57.2 °F 48.2 °F 72% 30.20 in 10.0 mi Calm Calm - N/A   Clear